When you browse on this site, cookies collect data to enhance your experience and personalize the content and advertising you see.
Visit our Privacy Policy to learn more. By continuing to use the site, you agree to this use of cookies and data.
  • In Hungary
  • List of Countries
  • For 7 days
  • Water Temperature
  • Satellite Maps
  • Weather Map
  • News
  • Weather Widgets
  • user-avatar
    Login

    Hourly Weather Arese

    Today, 19 December, Wednesday

    Time Temperature Precipitation Wind Pressure Humidity
    00:00 +3°C° 0 mm 1 mps 754 mmHg 53%
    01:00 +2°C° 0 mm 0 mps 754 mmHg 53%
    02:00 +2°C° 0 mm 0 mps 754 mmHg 52%
    03:00 +2°C° 0 mm 0 mps 753 mmHg 52%
    04:00 +4°C° 0 mm 1 mps 753 mmHg 52%
    05:00 +3°C° 0 mm 0 mps 753 mmHg 53%
    06:00 +3°C° 0 mm 0 mps 753 mmHg 53%
    07:00 +3°C° 0 mm 0 mps 753 mmHg 54%
    08:00 +3°C° 0 mm 0 mps 753 mmHg 55%
    09:00 +4°C° 0 mm 1 mps 752 mmHg 55%
    10:00 +5°C° 0 mm 1 mps 752 mmHg 56%
    11:00 +5°C° 0.1 mm 1 mps 752 mmHg 58%
    12:00 +5°C° 0.1 mm 1 mps 752 mmHg 60%
    13:00 +6°C° 0.1 mm 1 mps 751 mmHg 63%
    14:00 +5°C° 0.4 mm 1 mps 751 mmHg 69%
    15:00 +5°C° 0.4 mm 1 mps 751 mmHg 75%
    16:00 +4°C° 0.4 mm 1 mps 750 mmHg 82%
    17:00 +4°C° 0.8 mm 1 mps 750 mmHg 85%
    18:00 +4°C° 0.8 mm 1 mps 750 mmHg 89%
    19:00 +4°C° 0.8 mm 1 mps 750 mmHg 92%
    20:00 +4°C° 1.7 mm 1 mps 750 mmHg 93%
    21:00 +4°C° 1.7 mm 1 mps 750 mmHg 94%
    22:00 +4°C° 1.7 mm 1 mps 750 mmHg 95%
    23:00 +4°C° 1 mm 1 mps 750 mmHg 95%

    Tomorrow, 20 December, Thursday

    Time Temperature Precipitation Wind Pressure Humidity
    00:00 +4°C° 1 mm 1 mps 750 mmHg 95%
    01:00 +4°C° 1 mm 1 mps 750 mmHg 96%
    02:00 +4°C° 0.2 mm 1 mps 750 mmHg 96%
    03:00 +3°C° 0.2 mm 1 mps 750 mmHg 96%
    04:00 +3°C° 0.2 mm 1 mps 750 mmHg 97%
    05:00 +3°C° 0 mm 1 mps 750 mmHg 96%
    06:00 +3°C° 0 mm 1 mps 751 mmHg 95%
    07:00 +3°C° 0 mm 1 mps 751 mmHg 94%
    08:00 +3°C° 0 mm 1 mps 751 mmHg 92%
    09:00 +4°C° 0 mm 1 mps 752 mmHg 90%
    10:00 +5°C° 0 mm 1 mps 752 mmHg 89%
    11:00 +5°C° 0 mm 1 mps 752 mmHg 88%
    12:00 +6°C° 0 mm 1 mps 751 mmHg 87%
    13:00 +7°C° 0 mm 1 mps 751 mmHg 87%
    14:00 +6°C° 0 mm 1 mps 751 mmHg 89%
    15:00 +6°C° 0 mm 1 mps 751 mmHg 90%
    16:00 +5°C° 0 mm 1 mps 751 mmHg 92%
    17:00 +5°C° 0 mm 1 mps 752 mmHg 92%
    18:00 +4°C° 0 mm 1 mps 753 mmHg 91%
    19:00 +4°C° 0 mm 1 mps 753 mmHg 91%
    20:00 +4°C° 0 mm 1 mps 754 mmHg 90%
    21:00 +4°C° 0 mm 1 mps 754 mmHg 89%
    22:00 +3°C° 0 mm 1 mps 755 mmHg 88%
    23:00 +3°C° 0 mm 1 mps 755 mmHg 87%

    Day after tomorrow, 21 December, Friday

    Time Temperature Precipitation Wind Pressure Humidity
    00:00 +3°C° 0 mm 1 mps 755 mmHg 87%
    01:00 +3°C° 0 mm 1 mps 755 mmHg 86%
    02:00 +3°C° 0 mm 1 mps 755 mmHg 85%
    03:00 +3°C° 0 mm 1 mps 755 mmHg 85%
    04:00 +3°C° 0 mm 1 mps 755 mmHg 85%
    05:00 +3°C° 0 mm 1 mps 754 mmHg 84%
    06:00 +3°C° 0 mm 1 mps 754 mmHg 84%
    07:00 +3°C° 0 mm 1 mps 754 mmHg 83%
    08:00 +3°C° 0 mm 1 mps 754 mmHg 82%
    09:00 +4°C° 0 mm 1 mps 754 mmHg 80%
    10:00 +5°C° 0 mm 1 mps 754 mmHg 78%
    11:00 +6°C° 0 mm 1 mps 754 mmHg 75%
    12:00 +7°C° 0 mm 1 mps 753 mmHg 73%
    13:00 +8°C° 0 mm 1 mps 753 mmHg 70%
    14:00 +7°C° 0 mm 1 mps 753 mmHg 72%
    15:00 +7°C° 0 mm 1 mps 753 mmHg 73%
    16:00 +6°C° 0 mm 1 mps 752 mmHg 75%
    17:00 +6°C° 0 mm 1 mps 752 mmHg 75%
    18:00 +5°C° 0 mm 1 mps 752 mmHg 74%
    19:00 +5°C° 0 mm 1 mps 752 mmHg 74%
    20:00 +5°C° 0 mm 1 mps 752 mmHg 74%
    21:00 +5°C° 0 mm 1 mps 752 mmHg 73%
    22:00 +5°C° 0 mm 1 mps 752 mmHg 73%
    23:00 +5°C° 0 mm 1 mps 752 mmHg 73%

    22 December, Saturday

    Time Temperature Precipitation Wind Pressure Humidity
    00:00 +5°C° 0 mm 1 mps 752 mmHg 74%
    01:00 +5°C° 0 mm 1 mps 751 mmHg 74%
    02:00 +5°C° 0 mm 1 mps 751 mmHg 75%
    03:00 +5°C° 0 mm 1 mps 751 mmHg 76%
    04:00 +5°C° 0 mm 1 mps 751 mmHg 77%
    05:00 +5°C° 0 mm 1 mps 751 mmHg 78%
    06:00 +5°C° 0 mm 1 mps 751 mmHg 79%
    07:00 +5°C° 0 mm 1 mps 751 mmHg 80%
    08:00 +6°C° 0 mm 1 mps 751 mmHg 80%
    09:00 +7°C° 0 mm 1 mps 751 mmHg 80%
    10:00 +7°C° 0 mm 1 mps 751 mmHg 80%
    11:00 +8°C° 0 mm 1 mps 751 mmHg 79%
    12:00 +9°C° 0 mm 1 mps 751 mmHg 77%
    13:00 +11°C° 0 mm 1 mps 750 mmHg 76%
    14:00 +10°C° 0 mm 1 mps 750 mmHg 79%
    15:00 +10°C° 0 mm 1 mps 750 mmHg 81%
    16:00 +9°C° 0 mm 1 mps 751 mmHg 84%
    17:00 +9°C° 0 mm 1 mps 751 mmHg 85%
    18:00 +8°C° 0 mm 1 mps 751 mmHg 86%
    19:00 +8°C° 0 mm 1 mps 752 mmHg 87%
    20:00 +7°C° 0 mm 1 mps 752 mmHg 86%
    21:00 +7°C° 0 mm 1 mps 752 mmHg 86%
    22:00 +7°C° 0 mm 1 mps 752 mmHg 85%
    23:00 +7°C° 0 mm 1 mps 752 mmHg 85%

    23 December, Sunday

    Time Temperature Precipitation Wind Pressure Humidity
    00:00 +7°C° 0 mm 1 mps 752 mmHg 85%
    01:00 +7°C° 0 mm 1 mps 752 mmHg 85%
    02:00 +7°C° 0 mm 1 mps 752 mmHg 85%
    03:00 +6°C° 0 mm 1 mps 752 mmHg 85%
    04:00 +6°C° 0 mm 1 mps 752 mmHg 85%
    05:00 +6°C° 0 mm 1 mps 752 mmHg 85%
    06:00 +6°C° 0 mm 1 mps 752 mmHg 85%
    07:00 +6°C° 0 mm 1 mps 752 mmHg 85%
    08:00 +7°C° 0 mm 1 mps 752 mmHg 84%
    09:00 +7°C° 0 mm 1 mps 752 mmHg 82%
    10:00 +8°C° 0 mm 1 mps 752 mmHg 81%
    11:00 +9°C° 0 mm 1 mps 752 mmHg 79%
    12:00 +10°C° 0 mm 1 mps 752 mmHg 77%
    13:00 +11°C° 0 mm 1 mps 751 mmHg 74%
    14:00 +10°C° 0 mm 1 mps 751 mmHg 77%
    15:00 +10°C° 0 mm 1 mps 751 mmHg 79%
    16:00 +9°C° 0 mm 1 mps 751 mmHg 81%
    17:00 +9°C° 0 mm 1 mps 751 mmHg 83%
    18:00 +8°C° 0 mm 1 mps 751 mmHg 84%
    19:00 +8°C° 0 mm 1 mps 752 mmHg 85%
    20:00 +8°C° 0 mm 1 mps 752 mmHg 85%
    21:00 +7°C° 0 mm 1 mps 752 mmHg 86%
    22:00 +7°C° 0 mm 1 mps 753 mmHg 87%
    23:00 +7°C° 0 mm 1 mps 753 mmHg 87%

    24 December, Monday

    Time Temperature Precipitation Wind Pressure Humidity
    00:00 +7°C° 0 mm 1 mps 753 mmHg 88%
    01:00 +7°C° 0 mm 1 mps 753 mmHg 88%
    02:00 +7°C° 0 mm 1 mps 753 mmHg 88%
    03:00 +7°C° 0 mm 1 mps 752 mmHg 88%
    04:00 +7°C° 0 mm 1 mps 752 mmHg 87%
    05:00 +7°C° 0 mm 1 mps 753 mmHg 87%
    06:00 +6°C° 0 mm 1 mps 753 mmHg 86%
    07:00 +6°C° 0 mm 1 mps 753 mmHg 86%
    08:00 +7°C° 0 mm 1 mps 753 mmHg 84%
    09:00 +8°C° 0 mm 1 mps 754 mmHg 82%
    10:00 +8°C° 0 mm 1 mps 754 mmHg 80%
    11:00 +9°C° 0 mm 1 mps 754 mmHg 77%
    12:00 +10°C° 0 mm 1 mps 754 mmHg 75%
    13:00 +11°C° 0 mm 1 mps 754 mmHg 73%
    14:00 +10°C° 0 mm 1 mps 754 mmHg 76%
    15:00 +10°C° 0 mm 1 mps 755 mmHg 80%
    16:00 +9°C° 0 mm 1 mps 755 mmHg 83%
    17:00 +8°C° 0 mm 1 mps 756 mmHg 84%
    18:00 +8°C° 0 mm 1 mps 756 mmHg 84%
    19:00 +7°C° 0 mm 1 mps 757 mmHg 84%
    20:00 +7°C° 0 mm 1 mps 757 mmHg 81%
    21:00 +6°C° 0 mm 1 mps 757 mmHg 78%
    22:00 +6°C° 0 mm 1 mps 758 mmHg 75%
    23:00 +6°C° 0 mm 1 mps 757 mmHg 73%
    Show more